Location: Helsinki
(60.1699°N, 24.9384°E)
Time: 13:11:11
(UTC+02:00)

Transit 2A Rocket - Pass Details

Date: 28 September 2023
Orbit: 593 x 903 km, 66.7° (Epoch: 06 December)

Event Time Altitude Azimuth Distance (km) Brightness Sun altitude
Rises 21:54:01 0° 306° (NW) 3,050 9.7 -20.9°
Reaches altitude 10° 21:56:25 10° 308° (NW) 2,087 8.4 -21.2°
Maximum altitude 22:01:06 79° 35° (NE) 646 4.5 -21.6°
Enters shadow 22:01:47 63° 104° (ESE) 702 4.5 -21.7°
Drops below altitude 10° 22:05:29 10° 123° (ESE) 1,955 - -22.1°
Sets 22:07:41 0° 125° (SE) 2,840 - -22.3°
